AirNav   Everest Fuels
 
 492 users online  

PS01 Sterling Heliport
Croydon, Pennsylvania, USA

GOING TO CROYDON?


FAA INFORMATION EFFECTIVE 21 MAY 2020

Location

FAA Identifier: PS01
Lat/Long: 40-04-52.6000N 074-53-39.2000W
40-04.876667N 074-53.653333W
40.0812778,-74.8942222
(estimated)
Elevation: 24 ft. / 7 m (estimated)
From city: 1 mile SE of CROYDON, PA
Time zone: UTC -4 (UTC -5 during Standard Time)
Zip code: 19021

Heliport Operations

Heliport use: Private use. Permission required prior to landing
Activation date: 10/2006
Control tower: no
ARTCC: NEW YORK CENTER
FSS: WILLIAMSPORT FLIGHT SERVICE STATION
Attendance: MON-FRI 0800-1700
Wind indicator: yes
Segmented circle: no

Heliport Communications

WX ASOS at PNE (5 nm W): 121.15 (215-677-0146)
WX ASOS at VAY (9 nm S): 119.325 (609-267-1176)
WX ASOS at TTN (12 nm N): 126.775 (609-538-8690)
WX AWOS-3 at LOM (17 nm W): 118.925 (215-646-1068)
WX ASOS at DYL (18 nm NW): 118.875 (215-345-0392)

Nearby radio navigation aids

VOR radial/distance  VOR name  Freq  Var
ARDr187/10.3YARDLEY VOR/DME108.2010W
GXUr299/14.3MC GUIRE VORTAC110.6012W
RBVr258/19.7ROBBINSVILLE VORTAC113.8010W
CYNr317/26.5COYLE VORTAC113.4010W
SBJr203/30.9SOLBERG VOR/DME112.9010W
PTWr114/31.7POTTSTOWN VORTAC116.5009W
OODr045/32.7WOODSTOWN VORTAC112.8010W
VCNr016/32.8CEDAR LAKE VOR/DME115.2010W
COLr259/36.4COLTS NECK VOR/DME115.4011W
MXEr084/37.0MODENA VORTAC113.2009W

 
NDB name  Hdg/Dist  Freq  Var  ID
AMBLER110/18.127512WING .. -. --.
LAKEHURST286/25.839611WNEL -. . .-..

Heliport Services

Airframe service: MAJOR
Powerplant service: MAJOR

Runway Information

Helipad H1

Dimensions: 50 x 50 ft. / 15 x 15 m
Surface: concrete, in good condition
Traffic pattern: leftleft

Heliport Ownership and Management from official FAA records

Ownership: Privately-owned
Owner: STERLING HELICOPTER
1226 RIVER ROAD
CROYDON, PA 19021
Phone 215-271-2510
Manager: PHIL BIDDEN
1226 RIVER ROAD
CROYDON, PA 19021
Phone 215-271-2510

Additional Remarks

CALL PRIOR TO USE FOR PERMISSION, NOISE ABATEMENT PROC & PREF FLT ROUTE.
AVOID OVR FLT OF HOMES & SCHOOL 0.5 NM NE.
FOR CD CTC PHILADELPHIA APCH AT 800-354-9884.

Instrument Procedures

There are no published instrument procedures at PS01.

Some nearby airports with instrument procedures:

KPNE - Northeast Philadelphia Airport (5 nm W)
KVAY - South Jersey Regional Airport (9 nm S)
N14 - Flying W Airport (10 nm SE)
KTTN - Trenton Mercer Airport (12 nm N)
KWRI - McGuire Field (Joint Base Mc Guire Dix Lakehurst) Airport (14 nm E)
N87 - Trenton-Robbinsville Airport (16 nm NE)
KLOM - Wings Field Airport (17 nm W)
19N - Camden County Airport (18 nm S)
KDYL - Doylestown Airport (18 nm NW)
 
Loc | Ops | Rwys | IFR | FBO | Links
Com | Nav | Svcs | Stats | Notes
Area around PS01 (Sterling Heliport)
 
Road maps at: MapQuest Bing Google
 
Aerial photo
No photo
 
Sectional chart

 
Airport distance calculator
Flying to Sterling Heliport? Find the distance to fly.

From to PS01

Sunrise and sunset
Times for 07-Jun-2020
 Local
(UTC-4)
 Zulu
(UTC)
Morning civil twilight04:5908:59
Sunrise05:3109:31
Sunset20:2600:26
Evening civil twilight20:5800:58

Current date and time
Zulu (UTC)  07-Jun-2020 05:54:40
Local (UTC-4)  07-Jun-2020 01:54:40
 
METAR
KPNE 
6nm W 
070454Z AUTO 01011KT 10SM CLR 23/08 A2986 RMK AO2 SLP110 T02330078 403280211
KVAY 
9nm S 
ASOS 119.325 609-267-1176
070454Z AUTO 35006KT 10SM SCT100 22/09 A2984 RMK AO2 SLP103 T02170094 403110211
KTTN 
13nm N 
ASOS 133.70 609-538-8690
070453Z AUTO 33006KT 10SM CLR 20/08 A2984 RMK AO2 SLP097 T02000083 403060200
KWRI 
15nm E 
070456Z AUTO 36009KT 10SM FEW100 SCT130 20/10 A2984 RMK AO2 SLP103 T02000104 403110200 TSNO $
KLOM 
17nm W 
070535Z AUTO 00000KT 10SM CLR 19/10 A2987 RMK AO2 T01940097
KDYL 
18nm NW 
070454Z AUTO 35004KT 10SM CLR 20/08 A2986 RMK AO2 SLP105 T02000078 403170200 $
TAF
KPNE 
6nm W 
061730Z 0618/0718 28010G20KT P6SM SCT050 TEMPO 0621/0623 -TSRA BKN035CB FM062300 33010G20KT P6SM SCT050 FM070200 32007KT P6SM SKC FM071500 32013G23KT P6SM SKC
KTTN 
13nm N 
061730Z 0618/0718 29008G18KT P6SM SCT050 TEMPO 0621/0623 -TSRA BKN035CB FM062300 33008G18KT P6SM SCT050 FM070200 33006KT P6SM SKC FM071500 34013G23KT P6SM SKC
KWRI 
15nm E 
070200Z 0702/0808 34008KT 9999 SCT090 QNH2979INS BECMG 0714/0715 33010G20KT 9999 FEW050 QNH2988INS BECMG 0721/0722 33008KT 9999 BKN050 QNH2990INS TX24/0721Z TN16/0710Z
NOTAMs
Click for the latest NOTAMs
NOTAMs are issued by the DoD/FAA and will open in a separate window not controlled by AirNav.

 

 
 

Would you like to see your business listed on this page?

 If your business provides an interesting product or service to pilots, flight crews, aircraft, or users of the Sterling Heliport, you should consider listing it here.  To start the listing process, click on the button below
 
Add a business
 

Other Pages about Sterling Heliport

Update a link
 
Copyright © AirNav, LLC. All rights reserved. Privacy Policy  Contact